LEOIR Weather Reports


time (UTC)temp
C
wind
direction
speed
KPH
gust
KPH
rain 1hr
cm
rain 24hr
cm
rain mn
cm
humidity
%
barometer
mb
20260504213003 16 42 0.0 0.0 0.00 0.00 0.00 44 1010.1
20260504211506 15 42 0.0 0.0 0.00 0.00 0.00 44 1010.0
20260504210100 16 42 0.0 0.0 0.00 0.00 0.00 44 1010.0
20260504204603 16 42 0.0 0.0 0.00 0.00 0.00 42 1009.9
20260504203121 16 42 0.0 0.0 0.00 0.00 0.00 42 1010.0
20260504201558 17 42 0.0 0.0 0.00 0.00 0.00 39 1009.9
20260504200058 18 42 0.0 0.0 0.00 0.00 0.00 36 1009.8
20260504194606 18 42 0.0 0.0 0.00 0.00 0.00 35 1009.8
20260504193109 19 42 0.0 1.6 0.00 0.00 0.00 34 1009.9
20260504191556 20 42 0.0 1.6 0.00 0.00 0.00 33 1009.9
20260504190116 20 42 0.0 0.0 0.00 0.00 0.00 31 1009.8
20260504184606 21 42 0.0 0.0 0.00 0.00 0.00 30 1009.7
20260504183054 22 42 0.0 0.0 0.00 0.00 0.00 28 1009.6
20260504181554 22 42 0.0 1.6 0.00 0.00 0.00 26 1009.5
20260504180053 23 42 0.0 1.6 0.00 0.00 0.00 25 1009.4
20260504174601 23 42 0.0 1.6 0.00 0.00 0.00 24 1009.3
20260504173056 24 42 0.0 1.6 0.00 0.00 0.00 23 1009.3
20260504171551 25 42 0.0 0.0 0.00 0.00 0.00 22 1009.1
20260504090116 25 65 0.0 4.8 0.00 0.00 0.00 31 1013.0
20260504081540 24 86 0.0 8.0 0.00 0.00 0.00 31 1013.1
20260504060105 17 14 0.0 0.0 0.00 0.00 0.00 50 1013.3
20260504044555 12 4 0.0 0.0 0.00 0.00 0.00 57 1013.2
20260504043036 12 21 0.0 1.6 0.00 0.00 0.00 58 1013.1
20260504041530 12 21 0.0 0.0 0.00 0.00 0.00 58 1013.2
20260504040026 11 21 0.0 0.0 0.00 0.00 0.00 60 1013.2
20260504034533 10 21 0.0 0.0 0.00 0.00 0.00 63 1013.3
20260504033018 10 21 0.0 0.0 0.00 0.00 0.00 66 1013.4
20260504031515 9 21 0.0 0.0 0.00 0.00 0.00 68 1013.5
20260504030013 8 21 0.0 0.0 0.00 0.00 0.00 68 1013.5
20260504024517 9 21 0.0 0.0 0.00 0.00 0.00 67 1013.5
20260504023008 9 21 0.0 0.0 0.00 0.00 0.00 66 1013.5
20260504021506 10 21 0.0 0.0 0.00 0.00 0.00 65 1013.4
20260504020008 10 21 0.0 0.0 0.00 0.00 0.00 64 1013.4
20260504014502 10 21 0.0 0.0 0.00 0.00 0.00 64 1013.4
20260504013101 10 21 0.0 0.0 0.00 0.00 0.00 65 1013.5
20260504011558 10 21 0.0 0.0 0.00 0.00 0.00 64 1013.5
20260504010059 10 21 0.0 0.0 0.00 0.00 0.00 63 1013.5
20260504004552 10 21 0.0 0.0 0.00 0.00 0.00 62 1013.5
20260504003050 11 21 0.0 0.0 0.00 0.00 0.00 62 1013.6
20260504001606 11 21 0.0 0.0 0.00 0.00 0.00 61 1013.6
20260504000045 11 21 0.0 0.0 0.00 0.00 0.00 60 1013.6
20260503234541 11 21 0.0 0.0 0.00 0.00 0.00 59 1013.6
20260503233037 12 21 0.0 0.0 0.00 0.00 0.00 58 1013.6
20260503231535 12 21 0.0 0.0 0.00 0.00 0.00 58 1013.6
20260503230032 12 21 0.0 0.0 0.00 0.00 0.00 57 1013.7
20260503224529 12 21 0.0 0.0 0.00 0.00 0.00 57 1013.6
20260503223026 13 21 0.0 0.0 0.00 0.00 0.00 55 1013.6
20260503221531 13 21 0.0 0.0 0.00 0.00 0.00 55 1013.6
20260503220020 13 21 0.0 0.0 0.00 0.00 0.00 53 1013.6
20260503214519 14 21 0.0 0.0 0.00 0.00 0.00 52 1013.6